Terminal Aerodrome Forecast
Issued by NWS

Home | Current Version | Previous Version | Text Only | Print | Product List | Glossary On
Versions: 1 2 3 4 5 6 7 8 9 10 11 12 13 14 15 16 17 18 19 20
000
FTUS43 KDTX 210000 AAA
TAFMBS
TAF AMD
KMBS 210005Z 2100/2124 32005KT P6SM BKN025 BKN060
     FM210400 32008KT P6SM OVC015
     FM211300 36012G21KT P6SM OVC025
     FM211800 01015KT P6SM BKN050=

USA.gov is the U.S. government's official web portal to all federal, state and local government web resources and services.